Plymouth, NH

11:11 AM EST on February 07, 2016 (GMT -0500)
Plymouth

Weather History for K1P1 - April, 2013

Change the Weather History Date:

Monday, April 22, 2013

  Actual Average Record
Temperature  
Mean Temperature 38 °F -  
Max Temperature 52 °F - - ()
Min Temperature 23 °F - - ()
Degree Days  
Heating Degree Days 28    
Moisture  
Dew Point 21 °F    
Average Humidity 58    
Maximum Humidity 96    
Minimum Humidity 22    
Precipitation  
Precipitation 0.00 in - - ()
Sea Level Pressure  
Sea Level Pressure 30.68 in    
Wind  
Wind Speed 3 mph (ESE)    
Max Wind Speed 14 mph    
Max Gust Speed 21 mph    
Visibility 10 miles    
Events      
T = Trace of Precipitation, MM = Missing Value Source: NWS Daily Summary

Daily Weather History Graph

Daily Weather History Graph

Search for Another Location

Airport or City:

Trip Planner

Search our weather history database for the weather conditions in past years. The results will help you decide how hot, cold, wet, or windy it might be!

Date:

Astronomy

Apr. 22, 2013 Rise Set
Actual Time 5:52 AM EDT 7:39 PM EDT
Civil Twilight 5:21 AM EDT 8:10 PM EDT
Nautical Twilight 4:44 AM EDT 8:47 PM EDT
Astronomical Twilight 4:04 AM EDT 9:27 PM EDT
Moon 4:19 PM EDT (4/22) 3:52 AM EDT (4/22)
Length of Visible Light 14h 48m
Length of Day
13h 47m
Waxing Gibbous, 87% of the Moon is Illuminated
Apr 22
Waxing Gibbous
Apr 25
Full
May 2
Last Quarter
May 9
New
May 18
First Quarter

Hourly Weather History & Observations

Time (EDT) Temp. Windchill Dew Point Humidity Pressure Visibility Wind Dir Wind Speed Gust Speed Precip Events Conditions
12:15 AM 27.5 °F - 23.0 °F 83% 30.69 in 10.0 mi Calm Calm - N/A   Clear
12:35 AM 27.3 °F - 23.9 °F 87% 30.69 in 10.0 mi Calm Calm - N/A   Clear
12:55 AM 27.0 °F - 23.9 °F 88% 30.69 in 10.0 mi Calm Calm - N/A   Clear
1:15 AM 26.8 °F - 23.4 °F 87% 30.70 in 10.0 mi Calm Calm - N/A   Clear
1:35 AM 26.4 °F - 23.5 °F 89% 30.70 in 10.0 mi Calm Calm - N/A   Clear
1:55 AM 26.4 °F - 24.1 °F 91% 30.70 in 10.0 mi Calm Calm - N/A   Clear
2:15 AM 25.7 °F - 23.4 °F 91% 30.70 in 10.0 mi Calm Calm - N/A   Clear
2:35 AM 25.5 °F - 23.7 °F 93% 30.70 in 10.0 mi Calm Calm - N/A   Clear
2:55 AM 25.2 °F - 22.8 °F 91% 30.70 in 10.0 mi Calm Calm - N/A   Clear
3:15 AM 25.0 °F - 23.2 °F 93% 30.71 in 10.0 mi Calm Calm - N/A   Clear
3:35 AM 24.8 °F - 23.2 °F 94% 30.71 in 10.0 mi Calm Calm - N/A   Clear
3:55 AM 24.4 °F - 23.0 °F 94% 30.71 in 10.0 mi Calm Calm - N/A   Clear
4:15 AM 24.4 °F - 23.0 °F 94% 30.72 in 10.0 mi Calm Calm - N/A   Clear
4:35 AM 24.3 °F - 22.8 °F 94% 30.72 in 10.0 mi Calm Calm - N/A   Clear
4:55 AM 23.9 °F - 22.8 °F 96% 30.72 in 10.0 mi Calm Calm - N/A   Clear
5:15 AM 23.9 °F - 23.0 °F 96% 30.72 in 10.0 mi Calm Calm - N/A   Clear
5:35 AM 23.5 °F - 22.6 °F 96% 30.73 in 10.0 mi Calm Calm - N/A   Clear
5:55 AM 23.2 °F - 22.3 °F 96% 30.74 in 10.0 mi Calm Calm - N/A   Clear
6:15 AM 23.0 °F - 22.1 °F 96% 30.75 in 10.0 mi Calm Calm - N/A   Clear
6:35 AM 23.7 °F - 22.8 °F 96% 30.75 in 10.0 mi Calm Calm - N/A   Clear
6:55 AM 24.4 °F - 23.0 °F 94% 30.75 in 10.0 mi Calm Calm - N/A   Clear
7:15 AM 25.7 °F - 23.9 °F 93% 30.76 in 10.0 mi Calm Calm - N/A   Clear
7:35 AM 27.5 °F - 24.8 °F 90% 30.76 in 10.0 mi Calm Calm - N/A   Clear
7:55 AM 28.9 °F - 25.0 °F 85% 30.76 in 10.0 mi Calm Calm - N/A   Clear
8:15 AM 30.7 °F - 25.0 °F 79% 30.75 in 10.0 mi Calm Calm - N/A   Clear
8:35 AM 32.0 °F - 25.2 °F 76% 30.75 in 10.0 mi Calm Calm - N/A   Clear
8:55 AM 34.7 °F - 25.0 °F 68% 30.75 in 10.0 mi Calm Calm - N/A   Clear
9:15 AM 38.5 °F - 23.7 °F 55% 30.75 in 10.0 mi Calm Calm - N/A   Clear
9:35 AM 42.1 °F 37.7 °F 16.9 °F 36% 30.75 in 10.0 mi ESE 6.9 mph - N/A   Clear
9:55 AM 43.0 °F 37.2 °F 14.5 °F 32% 30.75 in 10.0 mi East 10.4 mph - N/A   Clear
10:15 AM 45.1 °F 41.4 °F 16.2 °F 31% 30.74 in 10.0 mi East 6.9 mph - N/A   Clear
10:35 AM 45.3 °F 39.3 °F 14.7 °F 29% 30.74 in 10.0 mi East 12.7 mph 19.6 mph N/A   Clear
10:55 AM 46.2 °F 41.2 °F 14.5 °F 28% 30.75 in 10.0 mi SE 10.4 mph 17.3 mph N/A   Clear
11:15 AM 46.2 °F 41.7 °F 14.2 °F 28% 30.75 in 10.0 mi SE 9.2 mph 18.4 mph N/A   Clear
11:35 AM 47.5 °F - 16.7 °F 29% 30.75 in 10.0 mi East 12.7 mph 18.4 mph N/A   Clear
11:55 AM 47.5 °F - 17.4 °F 30% 30.73 in 10.0 mi East 11.5 mph 16.1 mph N/A   Clear
12:15 PM 49.1 °F - 17.2 °F 28% 30.72 in 10.0 mi SE 11.5 mph - N/A   Clear
12:35 PM 48.9 °F - 16.0 °F 27% 30.70 in 10.0 mi ESE 9.2 mph 16.1 mph N/A   Clear
12:55 PM 49.1 °F - 18.1 °F 29% 30.69 in 10.0 mi East 12.7 mph 18.4 mph N/A   Clear
1:15 PM 49.3 °F - 17.1 °F 28% 30.68 in 10.0 mi East 11.5 mph - N/A   Clear
1:35 PM 50.5 °F - 19.4 °F 29% 30.67 in 10.0 mi East 11.5 mph 19.6 mph N/A   Clear
1:55 PM 50.9 °F - 21.2 °F 31% 30.67 in 10.0 mi East 9.2 mph 18.4 mph N/A   Clear
2:15 PM 51.8 °F - 21.0 °F 30% 30.67 in 10.0 mi East 12.7 mph 19.6 mph N/A   Clear
2:35 PM 50.9 °F - 18.1 °F 27% 30.66 in 10.0 mi SE 10.4 mph 20.7 mph N/A   Clear
2:55 PM 52.0 °F - 19.4 °F 28% 30.65 in 10.0 mi East 13.8 mph - N/A   Clear
3:15 PM 52.5 °F - 18.0 °F 26% 30.64 in 10.0 mi East 12.7 mph 18.4 mph N/A   Clear
3:35 PM 52.3 °F - 17.1 °F 25% 30.63 in 10.0 mi East 9.2 mph 18.4 mph N/A   Clear
3:55 PM 52.3 °F - 15.8 °F 24% 30.62 in 10.0 mi ESE 9.2 mph 19.6 mph N/A   Clear
4:15 PM 52.2 °F - 16.0 °F 24% 30.61 in 10.0 mi ESE 12.7 mph 18.4 mph N/A   Clear
4:35 PM 51.6 °F - 15.6 °F 24% 30.61 in 10.0 mi East 10.4 mph 17.3 mph N/A   Clear
4:55 PM 51.8 °F - 16.2 °F 24% 30.61 in 10.0 mi East 12.7 mph 18.4 mph N/A   Clear
5:15 PM 51.3 °F - 13.8 °F 23% 30.61 in 10.0 mi East 13.8 mph 20.7 mph N/A   Clear
5:35 PM 50.9 °F - 12.9 °F 22% 30.61 in 10.0 mi East 13.8 mph 17.3 mph N/A   Clear
5:55 PM 49.3 °F - 12.0 °F 22% 30.61 in 10.0 mi East 10.4 mph 19.6 mph N/A   Clear
6:15 PM 49.5 °F - 13.8 °F 24% 30.61 in 10.0 mi ESE 9.2 mph 16.1 mph N/A   Clear
6:35 PM 48.6 °F - 13.8 °F 25% 30.61 in 10.0 mi East 11.5 mph 18.4 mph N/A   Clear
6:55 PM 47.3 °F - 14.9 °F 27% 30.61 in 10.0 mi ESE 11.5 mph 16.1 mph N/A   Clear
7:15 PM 45.9 °F 42.9 °F 14.4 °F 28% 30.62 in 10.0 mi ESE 5.8 mph 9.2 mph N/A   Clear
7:35 PM 44.6 °F 40.7 °F 14.7 °F 30% 30.62 in 10.0 mi ESE 6.9 mph 16.1 mph N/A   Clear
7:55 PM 43.3 °F 39.2 °F 17.1 °F 35% 30.63 in 10.0 mi ESE 6.9 mph - N/A   Clear
8:15 PM 42.3 °F 37.3 °F 19.4 °F 40% 30.64 in 10.0 mi ESE 8.1 mph - N/A   Clear
8:35 PM 41.2 °F 36.6 °F 21.4 °F 45% 30.65 in 10.0 mi ESE 6.9 mph - N/A   Clear
8:55 PM 40.5 °F 35.8 °F 23.4 °F 51% 30.65 in 10.0 mi ESE 6.9 mph - N/A   Clear
9:15 PM 39.4 °F 36.1 °F 24.8 °F 56% 30.65 in 10.0 mi ESE 4.6 mph - N/A   Clear
9:35 PM 39.0 °F 34.8 °F 27.1 °F 62% 30.65 in 10.0 mi ESE 5.8 mph - N/A   Clear
9:55 PM 38.3 °F 35.9 °F 27.3 °F 65% 30.65 in 10.0 mi ESE 3.5 mph - N/A   Clear
10:15 PM 37.6 °F 34.0 °F 28.2 °F 69% 30.65 in 10.0 mi East 4.6 mph - N/A   Clear
10:35 PM 35.2 °F - 27.5 °F 73% 30.64 in 10.0 mi Calm Calm - N/A   Clear
10:55 PM 33.8 °F 30.8 °F 27.5 °F 78% 30.63 in 10.0 mi East 3.5 mph - N/A   Clear
11:15 PM 32.7 °F 29.6 °F 27.9 °F 82% 30.62 in 10.0 mi East 3.5 mph - N/A   Clear
11:35 PM 30.6 °F - 27.5 °F 88% 30.62 in 10.0 mi Calm Calm - N/A   Clear
11:55 PM 30.7 °F - 27.5 °F 88% 30.61 in 10.0 mi Calm Calm - N/A   Clear